Amritsar, India

1:29 PM IST on April 25, 2018 (GMT +0530)
Amritsar

Weather History for VIAR - October, 2012

Change the Weather History Date:

Friday, October 5, 2012

  Actual Average Record
Temperature  
Mean Temperature 79 °F -  
Max Temperature 93 °F 89 °F 95 °F (2002)
Min Temperature 65 °F 67 °F 60 °F (1996)
Cooling Degree Days 14    
Growing Degree Days 29 (Base 50)    
Moisture  
Dew Point 69 °F    
Average Humidity 74    
Maximum Humidity 100    
Minimum Humidity 33    
Precipitation  
Precipitation 0.00 in - - ()
Sea Level Pressure  
Sea Level Pressure 29.73 in    
Wind  
Wind Speed 1 mph ()    
Max Wind Speed 6 mph    
Max Gust Speed -    
Visibility 2.3 miles    
Events      
Averages and records for this station are not official NWS values.
T = Trace of Precipitation, MM = Missing Value Source: Averaged Metar Reports

Daily Weather History Graph

Daily Weather History Graph

Search for Another Location

Airport or City:

Astronomy

Oct. 05, 2012 Rise Set
Actual Time 6:26 AM IST 6:10 PM IST
Civil Twilight 6:02 AM IST 6:34 PM IST
Nautical Twilight 5:34 AM IST 7:02 PM IST
Astronomical Twilight 5:06 AM IST 7:31 PM IST
Moon 9:28 PM IST (10/5) 10:55 AM IST (10/5)
Length of Visible Light 12h 32m
Length of Day
11h 43m
Waning Gibbous, 77% of the Moon is Illuminated
Oct 5
Waning Gibbous
Oct 8
Last Quarter
Oct 15
New
Oct 22
First Quarter
Oct 30
Full

Hourly Weather History & Observations

Time (IST) Temp. Heat Index Dew Point Humidity Pressure Visibility Wind Dir Wind Speed Gust Speed Precip Events Conditions
1:00 AM 73.4 °F - 71.6 °F 94% 29.71 in 2.5 mi Calm Calm - N/A   Mist
2:00 AM 71.6 °F - 71.6 °F 100% 29.71 in 2.5 mi Calm Calm - N/A   Mist
3:00 AM 71.6 °F - 71.6 °F 100% 29.71 in 2.2 mi Calm Calm - N/A   Mist
4:00 AM 69.8 °F - 69.8 °F 100% 29.71 in 2.2 mi Calm Calm - N/A   Mist
5:00 AM 68.0 °F - 68.0 °F 100% 29.71 in 2.2 mi Calm Calm - N/A   Mist
5:30 AM 68 °F - 68 °F 100% 29.71 in 1 mi Calm Calm - -   Mist
5:30 AM 68.0 °F - 68.0 °F 100% 29.71 in 2.2 mi Calm Calm - N/A   Mist
6:00 AM 68.0 °F - 68.0 °F 100% 29.74 in 2.2 mi Calm Calm - N/A   Mist
8:00 AM 71.6 °F - 69.8 °F 94% 29.74 in 1.2 mi Calm Calm - N/A   Mist
8:30 AM 73 °F - 70 °F 87% 29.74 in 1 mi Calm Calm - -   Mist
8:30 AM 73.4 °F - 69.8 °F 88% 29.77 in 1.4 mi Calm Calm - N/A   Mist
9:00 AM 75.2 °F - 69.8 °F 83% 29.77 in 1.4 mi Calm Calm - N/A   Mist
10:00 AM 78.8 °F - 71.6 °F 78% 29.77 in 2.5 mi Calm Calm - N/A   Mist
11:30 AM 87 °F - 69 °F 46% 29.73 in 2 mi Calm Calm - -   Haze
1:00 PM 89.6 °F 92.2 °F 66.2 °F 46% 29.74 in 3.7 mi Variable 2.3 mph - N/A   Unknown
1:30 PM 91.4 °F 93.2 °F 64.4 °F 41% 29.74 in 3.7 mi Variable 3.5 mph - N/A   Unknown
2:00 PM 91.4 °F 95.4 °F 68.0 °F 46% 29.74 in 3.7 mi NW 4.6 mph - N/A   Unknown
2:30 PM 92 °F - 66 °F 33% 29.68 in 2 mi WNW 5.8 mph - -  
3:30 PM 91.4 °F 93.2 °F 64.4 °F 41% 29.71 in 3.7 mi West 5.8 mph - N/A   Unknown
5:00 PM 89.6 °F 93.4 °F 68.0 °F 49% 29.71 in 3.7 mi Variable 2.3 mph - N/A   Unknown
5:30 PM 88 °F - 69 °F 43% 29.68 in 2 mi Calm Calm - -  
6:00 PM 86.0 °F 90.4 °F 69.8 °F 58% 29.71 in 3.1 mi Calm Calm - N/A   Haze
6:30 PM 84.2 °F 88.4 °F 69.8 °F 62% 29.71 in 2.5 mi Calm Calm - N/A   Haze
7:30 PM 80.6 °F 84.6 °F 71.6 °F 74% 29.74 in 2.5 mi Calm Calm - N/A   Haze
8:30 PM 80 °F - 72 °F 70% 29.73 in 1 mi Calm Calm - -   Mist
9:00 PM 78.8 °F - 71.6 °F 78% 29.74 in 2.5 mi Calm Calm - N/A   Mist
11:30 PM 78 °F - 73 °F 80% 29.75 in 1 mi Calm Calm - -   Mist